Location: Baix
(44.7118°N, 4.7648°E)
Time: 15:03:30
(UTC+00:00)

A-11 Canister half - Pass Details

Date: 03 December 2020
Orbit: 1517 x 1683 km, 47.2° (Epoch: 15 January)

Event Time Altitude Azimuth Distance (km) Brightness Sun altitude
Rises 17:13:59 0° 294° (WNW) 4,921 12.4 -12.6°
Reaches altitude 10° 17:17:31 10° 286° (WNW) 3,941 12.0 -13.1°
Maximum altitude 17:26:11 34° 227° (SW) 2,527 10.8 -14.6°
Drops below altitude 10° 17:34:49 10° 167° (SSE) 3,918 11.2 -16.1°
Sets 17:38:21 0° 158° (SSE) 4,888 11.6 -16.7°
